This demonstration page uses our WeatherBlox Daily Observations layout. Learn more.

Left ArrowRight Arrow

39.51506, -84.39828

Hourly Observations for June 11, 2020

Temp ( °F °C ) Dew Point ( °F °C ) Humidity (%) Winds ( mph kmh ) Pressure ( in mb ) Visibility ( mi km ) Precip ( " mm )
12:15 am 00:15 Cloudy 72 22 57 14 61 61 WSW 12 19 29.86 1011 10 16.0934 0 0
12:35 am 00:35 Cloudy 72 22 57 14 61 61 W 18 30 29.87 1012 10 16.0934 0 0
12:55 am 00:55 Cloudy N/A N/A N/A W 18 30 N/A 10 16.0934 0 0
1:15 am 01:15 Cloudy 69 20.8 59 15.2 70 70 W 22 35 29.89 1012 10 16.0934 0 0
1:35 am 01:35 Cloudy N/A N/A N/A W 15 24 N/A 10 16.0934 0 0
1:55 am 01:55 Cloudy 68 20 59 15 73 73 WNW 20 31 29.91 1013 10 16.0934 0 0
2:15 am 02:15 Cloudy 68 20 59 15 73 73 W 22 35 29.92 1013 10 16.0934 0 0
2:35 am 02:35 Cloudy N/A N/A N/A W 16 26 N/A 10 16.0934 0 0
2:55 am 02:55 Cloudy 65 18.6 58 14.6 78 78 W 13 20 29.95 1014 10 16.0934 0 0
3:15 am 03:15 Cloudy 66 18.7 57 14.1 75 75 WNW 14 22 29.96 1014 10 16.0934 0 0
3:35 am 03:35 Cloudy 64 18 57 14 78 78 WNW 14 22 29.97 1015 10 16.0934 0 0
3:55 am 03:55 Cloudy 65 18.4 56 13.4 73 73 NW 13 20 29.98 1015 10 16.0934 0 0
4:15 am 04:15 Cloudy 65 18.3 56 13.2 72 72 NW 12 19 29.99 1016 10 16.0934 0 0
4:35 am 04:35 Partly Cloudy 64 17.6 56 13.1 75 75 WNW 7 11 30 1016 10 16.0934 0 0
4:55 am 04:55 Clear 62 16.8 56 13.1 79 79 W 6 9 30.01 1016 10 16.0934 0 0
5:15 am 05:15 Clear 61 16.3 56 13.1 81 81 W 6 9 30.01 1016 10 16.0934 0 0
5:35 am 05:35 Clear 59 15 55 13 88 88 WSW 5 7 30.03 1017 10 16.0934 0 0
5:55 am 05:55 Clear 58 14.4 55 12.9 91 91 WSW 6 9 30.04 1017 10 16.0934 0 0
6:15 am 06:15 Sunny 58 14.2 55 12.9 92 92 WSW 7 11 30.05 1018 10 16.0934 0 0
6:35 am 06:35 Sunny 58 14.7 56 13.4 92 92 WSW 7 11 30.06 1018 10 16.0934 0 0
6:55 am 06:55 Sunny 59 15.1 57 13.8 92 92 WSW 6 9 30.07 1018 10 16.0934 0 0
7:15 am 07:15 Sunny 61 16.1 58 14.2 89 89 WSW 6 9 30.07 1018 10 16.0934 0 0
7:35 am 07:35 Sunny 62 16.8 58 14.3 85 85 WSW 6 9 30.08 1019 10 16.0934 0 0
7:55 am 07:55 Sunny 63 17.4 58 14.3 82 82 WSW 9 15 30.08 1019 10 16.0934 0 0
8:15 am 08:15 Sunny 65 18.2 58 14.3 78 78 W 7 11 30.09 1019 10 16.0934 0 0
8:35 am 08:35 Sunny 66 18.7 58 14.6 77 77 W 9 15 30.1 1019 10 16.0934 0 0
8:55 am 08:55 Sunny 66 19.1 58 14.3 74 74 W 10 17 30.11 1020 10 16.0934 0 0
9:15 am 09:15 Sunny 67 19.7 58 14.5 72 72 WNW 8 13 30.12 1020 10 16.0934 0 0
9:35 am 09:35 Sunny 68 20.2 59 14.9 72 72 WNW 8 13 30.11 1020 10 16.0934 0 0
9:55 am 09:55 Sunny 69 20.8 59 14.9 69 69 W 8 13 30.12 1020 10 16.0934 0 0
10:15 am 10:15 Sunny 70 21.3 57 14.1 64 64 WNW 3 6 30.12 1020 10 16.0934 0 0
10:35 am 10:35 Sunny 71 21.9 58 14.7 64 64 W 10 17 30.13 1020 10 16.0934 0 0
10:55 am 10:55 Sunny 72 22 57 14 61 61 W 7 11 30.13 1020 10 16.0934 0 0
11:15 am 11:15 Sunny 73 23 59 15 61 61 W 10 17 30.13 1020 10 16.0934 0 0
11:35 am 11:35 Partly Cloudy 73 23 57 13.7 56 56 WNW 9 15 30.14 1021 10 16.0934 0 0
11:55 am 11:55 Sunny 73 23 57 14 57 57 W 13 20 30.14 1021 10 16.0934 0 0
12:15 pm 12:15 Partly Cloudy 75 24 55 13 50 50 W 8 13 30.14 1020 10 16.0934 0 0
12:35 pm 12:35 Partly Cloudy 75 23.7 55 12.8 51 51 WNW 10 17 30.15 1021 10 16.0934 0 0
12:55 pm 12:55 Partly Cloudy 75 24 55 13 50 50 W 10 17 30.15 1021 10 16.0934 0 0
1:15 pm 13:15 Partly Cloudy 76 24.4 55 13 49 49 WNW 8 13 30.14 1021 10 16.0934 0 0
1:35 pm 13:35 Partly Cloudy 77 25 55 13 47 47 W 13 20 30.14 1021 10 16.0934 0 0
1:55 pm 13:55 Sunny 77 25 54 12 44 44 W 15 24 30.14 1021 10 16.0934 0 0
2:15 pm 14:15 Sunny 77 25 54 12 44 44 W 13 20 30.14 1021 10 16.0934 0 0
2:35 pm 14:35 Sunny 77 25 55 13 47 47 W 16 26 30.14 1021 10 16.0934 0 0
2:55 pm 14:55 Sunny N/A N/A N/A W 9 15 N/A 10 16.0934 0 0
3:15 pm 15:15 Sunny N/A N/A N/A WNW 9 15 N/A 10 16.0934 0 0
3:35 pm 15:35 Partly Cloudy 79 26 53 11.4 40 40 NNW 5 7 30.13 1020 10 16.0934 0 0
3:55 pm 15:55 Partly Cloudy 79 26.3 53 11.6 40 40 W 13 20 30.13 1020 10 16.0934 0 0
4:15 pm 16:15 Sunny N/A N/A N/A W 9 15 N/A 10 16.0934 0 0
4:35 pm 16:35 Sunny N/A N/A N/A W 8 13 N/A 10 16.0934 0 0
4:55 pm 16:55 Partly Cloudy 81 27 54 12 39 39 NW 9 15 30.13 1020 10 16.0934 0 0
5:15 pm 17:15 Partly Cloudy 79 26 52 11 39 39 NW 9 15 30.13 1020 10 16.0934 0 0
5:35 pm 17:35 Partly Cloudy N/A N/A N/A NW 10 17 N/A 7 11.26538 0 0
5:55 pm 17:55 Partly Cloudy N/A N/A N/A WNW 12 19 N/A 10 16.0934 0 0
6:15 pm 18:15 Sunny 79 26 48 9 34 34 W 9 15 30.14 1021 10 16.0934 0 0
6:35 pm 18:35 Sunny N/A N/A N/A WNW 10 17 N/A 10 16.0934 0 0
6:55 pm 18:55 Hazy N/A N/A N/A WNW 12 19 N/A 7 11.26538 0 0
7:15 pm 19:15 Sunny N/A N/A N/A NW 10 17 N/A 10 16.0934 0 0
7:35 pm 19:35 Sunny N/A N/A N/A NW 8 13 N/A 10 16.0934 0 0
7:55 pm 19:55 Hazy 76 24.3 47 8.5 37 37 WNW 7 11 30.15 1021 5 8.0467 0 0
8:15 pm 20:15 Sunny 75 24 50 10 41 41 Calm 30.17 1022 10 16.0934 0 0
8:35 pm 20:35 Sunny 72 22 50 10 47 47 Calm 30.17 1022 10 16.0934 0 0
8:55 pm 20:55 Sunny 67 19.7 55 12.8 65 65 Calm 30.18 1022 10 16.0934 0 0
9:15 pm 21:15 Clear 64 17.7 56 13.2 75 75 Calm 30.18 1022 10 16.0934 0 0
9:35 pm 21:35 Clear 64 17.8 55 12.5 71 71 Calm 30.18 1022 10 16.0934 0 0
9:55 pm 21:55 Clear 64 17.6 55 12.6 73 73 Calm 30.19 1022 10 16.0934 0 0
10:15 pm 22:15 Clear 61 16.1 56 13.4 84 84 Calm 30.19 1022 10 16.0934 0 0
10:35 pm 22:35 Clear 60 15.6 56 13.3 86 86 Calm 30.21 1023 7 11.26538 0 0
10:55 pm 22:55 Clear 60 15.3 55 12.9 86 86 Calm 30.21 1023 10 16.0934 0 0
11:15 pm 23:15 Clear 60 15.3 56 13.2 87 87 Calm 30.22 1023 10 16.0934 0 0
11:35 pm 23:35 Clear 59 15.1 55 12.6 85 85 Calm 30.22 1023 10 16.0934 0 0
11:55 pm 23:55 Clear 59 14.8 55 12.6 87 87 Calm 30.22 1023 10 16.0934 0 0

Powered by AerisWeather